Wind_Speed
21 22 23 25 27 28 30 31 30 32 35 35 34 34 35 35 36 38 39 40 41 41 42 43 44 45 47 47 48 48 48 49 49 50 51 52 53 53 53 54 54 53 53 53
23 24 25 26 27 29 30 32 34 35 37 37 37 37 38 39 40 41 42 42 42 43 44 44 44 44 45 45 45 45 46 47 49 51 52 53 53 53 53 54 53 53 53 53
22 24 25 27 29 29 31 32 33 35 37 38 39 40 40 41 41 41 42 41 41 42 42 42 43 44 43 44 44 45 46 47 49 51 52 53 53 53 53 52 52 52 52 52
20 22 24 28 28 29 31 32 34 36 38 38 39 40 40 39 39 39 39 38 38 38 39 40 41 41 42 43 44 46 47 49 50 50 51 51 51 51 51 51 51 51 51 51
16 19 21 24 24 26 28 30 30 32 32 33 34 35 36 35 35 36 36 36 36 36 37 38 40 41 42 44 46 47 48 48 49 49 49 49 49 49 49 49 49 49 49 49
14 16 19 20 20 21 23 26 26 27 28 29 29 31 31 31 31 32 33 34 36 37 39 40 41 43 44 45 45 46 46 47 47 48 48 48 47 47 47 47 47 47 47 47
12 14 17 16 16 17 20 22 22 23 23 24 26 28 29 30 30 32 33 34 36 38 39 40 40 41 42 43 44 44 45 45 45 45 45 45 45 44 44 45 45 45 44 44
11 13 14 13 14 16 18 19 20 20 21 22 23 24 26 28 29 31 32 33 35 36 37 38 39 40 40 41 41 42 42 42 42 41 41 41 41 41 41 41 41 41 40 39
10 11 11 11 12 13 15 17 18 19 20 21 22 23 25 27 28 30 31 33 34 35 35 36 37 37 37 37 38 38 38 38 38 38 38 38 38 38 39 38 38 37 36 34
10 10 11 11 10 12 14 15 17 18 19 21 22 24 25 26 27 28 29 31 31 32 32 32 33 33 33 33 34 34 34 35 35 36 36 36 35 35 34 33 32 30 29 27
10 11 11 12 12 13 15 16 17 18 19 21 22 23 24 24 24 25 25 26 26 27 27 27 28 28 29 30 31 32 32 33 33 33 32 31 31 30 29 28 26 24 23 21
9 10 11 12 14 14 15 15 16 17 18 19 19 19 19 19 19 20 21 21 22 22 23 24 25 26 28 28 29 29 29 28 28 27 27 27 26 25 23 21 19 17 16 14
9 10 10 11 12 12 12 12 13 14 14 15 15 15 15 15 16 16 16 17 18 19 21 22 23 24 25 25 25 25 24 24 23 23 22 21 20 18 16 14 12 11 10 8
9 9 9 10 10 10 10 10 10 11 11 10 10 10 11 11 11 12 14 15 16 18 19 20 21 22 22 22 22 21 20 19 19 18 18 16 14 12 10 8 6 5 4 4
9 9 9 9 9 8 7 7 7 7 6 6 6 6 7 8 9 11 12 14 15 17 18 18 19 19 20 20 19 18 17 17 15 15 13 11 9 8 6 6 5 6 6 7
8 8 8 7 6 5 4 4 4 4 3 3 4 4 5 7 9 10 12 13 14 15 16 17 17 18 18 18 17 16 15 14 12 11 10 9 8 7 7 7 8 9 10 11
7 6 5 4 4 3 2 2 2 2 2 2 3 4 6 7 9 10 12 13 14 15 16 17 17 17 17 17 16 15 14 12 11 10 9 9 9 9 10 11 12 12 13 13
6 5 3 3 2 1 0 1 2 2 2 3 4 5 6 8 10 11 12 13 15 16 17 18 18 18 18 18 17 15 14 12 11 10 10 10 11 11 12 13 13 13 14 14
5 4 3 3 2 1 1 2 2 3 3 3 4 6 7 9 11 12 13 14 15 16 17 18 19 19 19 19 17 16 14 13 11 11 11 11 11 12 12 13 13 13 13 12
5 4 3 3 3 3 2 3 3 3 4 4 5 7 8 9 11 12 13 14 15 16 18 19 20 20 20 19 17 16 14 13 12 11 11 11 11 11 12 12 12 12 11 11
5 5 4 4 4 4 4 4 5 4 4 5 6 7 9 10 11 12 13 14 16 17 18 20 21 21 20 19 17 16 14 13 11 11 10 10 10 10 10 10 10 10 10 10
6 6 6 6 6 6 6 6 6 5 5 5 6 7 9 10 11 13 14 15 16 17 19 20 21 21 21 19 18 17 15 13 11 10 10 9 9 9 9 9 9 10 10 10
7 7 8 8 7 7 7 7 7 6 5 5 6 7 8 9 11 12 13 14 16 17 19 20 21 22 22 21 19 17 16 14 12 11 11 10 10 9 9 9 10 10 10 11
9 9 10 9 9 9 9 8 8 7 6 5 5 6 7 8 10 12 13 15 16 17 19 20 21 22 22 22 21 20 18 16 14 13 13 12 11 11 11 11 11 11 12 12
11 11 11 11 11 11 10 10 9 8 7 6 5 5 6 7 9 11 13 15 16 18 19 21 22 23 23 23 23 23 21 19 17 16 15 14 14 13 13 13 13 13 14 14
13 13 13 13 13 13 12 12 11 9 9 7 6 4 4 5 7 9 11 13 15 17 19 20 22 23 24 24 23 23 23 22 20 19 18 17 17 16 16 16 16 15 15 15
15 15 15 15 14 14 14 13 12 11 10 9 7 5 4 4 6 7 9 11 13 15 17 19 21 22 24 24 24 24 24 24 23 22 22 21 20 19 19 19 18 18 17 17
Wind_Direction
241 243 244 243 241 239 239 241 244 249 254 258 260 260 260 261 263 264 266 266 267 269 272 274 276 277 277 278 279 279 281 283 286 288 290 291 292 292 292 292 292 291 291 290
254 251 249 250 250 249 247 246 247 251 255 257 259 259 261 263 264 266 267 268 269 270 273 275 277 278 280 280 281 282 283 284 286 287 288 289 290 290 290 290 290 290 290 290
257 256 255 253 251 252 254 254 252 253 255 256 258 260 262 263 265 267 267 267 270 272 274 276 278 280 281 283 283 284 285 286 286 287 288 288 289 289 289 289 289 290 290 290
261 258 254 254 254 253 255 257 257 257 257 259 259 259 260 262 265 266 269 270 272 275 277 278 281 284 285 284 284 285 286 286 286 287 288 289 289 289 289 289 289 290 290 291
265 261 260 260 257 255 255 258 259 260 262 263 263 262 261 264 267 269 271 273 275 277 279 280 282 284 284 285 286 288 288 288 288 288 289 289 289 289 290 290 290 291 291 292
272 264 261 263 261 256 255 257 259 260 261 262 263 264 265 267 268 268 271 274 276 277 279 281 284 285 286 288 288 289 289 289 290 290 290 290 290 290 291 291 291 292 292 293
279 271 269 268 262 256 251 254 256 258 259 258 257 259 262 265 267 270 273 275 277 280 283 284 286 287 288 289 290 290 291 291 291 291 291 291 291 291 292 293 293 293 293 294
286 279 276 271 261 253 254 256 257 259 261 263 265 267 268 270 272 274 277 279 281 283 285 286 288 289 291 291 291 292 292 292 292 292 293 293 293 293 294 294 294 294 295 295
294 288 283 280 268 260 260 261 261 261 264 267 270 273 274 275 277 279 281 283 285 287 289 290 291 292 293 294 294 295 295 295 295 295 295 295 295 296 296 296 296 296 296 296
293 289 285 282 276 268 267 270 270 270 273 275 278 280 281 282 283 284 285 287 289 290 291 293 294 295 296 296 297 297 298 298 298 298 298 298 298 298 298 298 298 297 297 296
292 288 285 281 279 278 279 279 279 279 281 283 284 284 285 285 286 287 288 290 292 293 294 296 298 299 300 301 301 301 302 302 302 302 302 302 302 301 301 300 299 298 297 297
295 290 285 283 283 283 284 283 284 284 285 287 288 288 288 287 289 291 294 295 296 298 299 301 303 305 305 306 307 307 307 307 308 307 307 307 306 305 304 304 302 301 300 301
298 294 290 289 288 287 286 287 289 290 290 290 290 290 291 291 294 298 300 302 304 306 308 309 311 313 314 315 315 314 313 313 314 314 315 314 313 313 312 311 309 309 310 312
299 296 294 294 292 287 288 290 293 294 294 294 293 296 299 301 305 308 311 313 315 317 319 320 321 323 323 323 323 322 321 321 321 322 323 324 326 327 329 331 334 343 358 16
300 298 295 297 295 287 288 293 296 298 301 302 306 311 314 316 319 322 325 327 328 330 331 331 332 332 332 333 333 333 332 331 332 333 336 341 348 356 5 19 33 46 59 72
302 300 298 298 296 293 295 299 305 313 317 328 332 334 337 335 336 339 342 344 345 346 346 346 346 345 345 345 345 345 345 347 350 354 3 14 24 36 48 58 66 73 81 87
300 303 302 297 298 295 299 319 346 357 13 14 5 2 358 356 356 357 358 0 1 1 2 3 2 2 2 2 2 3 5 10 15 22 31 42 53 62 69 74 79 82 84 86
291 293 291 288 285 281 291 29 46 58 55 39 29 19 15 14 12 12 14 14 13 14 15 15 16 17 16 16 17 18 21 26 34 43 52 61 69 74 76 78 81 83 83 82
279 271 265 262 244 209 146 101 94 86 72 57 41 32 29 25 24 26 26 25 24 25 24 24 23 22 22 22 24 27 32 40 49 58 64 69 73 76 78 80 81 81 80 78
264 251 246 230 210 192 165 135 122 111 92 67 49 43 39 36 36 35 34 32 31 30 29 27 26 24 24 25 27 31 37 46 54 61 66 71 75 78 79 80 79 78 76 74
246 233 222 207 195 185 166 149 138 127 103 74 59 54 49 46 43 41 38 37 35 34 32 29 28 27 27 28 31 35 41 48 55 61 66 70 74 77 79 78 77 75 73 73
231 220 207 196 187 178 167 158 152 139 115 87 72 63 57 53 49 46 43 40 37 35 34 32 31 29 29 31 34 37 41 47 54 60 65 69 74 77 78 77 75 75 74 74
221 211 201 193 186 179 173 168 163 151 130 105 85 71 62 57 52 47 44 40 37 36 34 33 32 32 33 35 37 40 43 50 57 63 67 71 76 80 80 79 79 79 79 79
216 207 200 195 189 184 180 176 171 164 150 128 105 84 71 63 57 51 47 42 40 39 38 37 37 36 36 39 41 43 47 54 62 68 70 72 76 81 83 82 82 83 83 83
213 207 201 198 194 189 186 182 179 176 167 152 131 106 86 73 64 56 50 46 45 44 43 42 41 41 41 43 45 48 51 57 64 69 72 73 76 81 84 85 86 86 86 86
213 208 205 203 199 195 192 188 186 184 180 172 158 135 105 84 71 63 55 50 48 48 47 45 44 44 45 46 48 50 54 59 64 69 70 73 76 80 83 85 86 85 86 86
213 210 207 204 202 199 196 194 192 190 189 185 178 166 138 106 87 75 64 55 52 50 49 47 46 46 46 48 50 53 57 61 64 68 70 73 76 78 81 83 84 85 85 87
Height
5749 5750 5751 5753 5754 5756 5758 5760 5763 5762 5762 5763 5764 5765 5766 5766 5766 5766 5766 5765 5764 5763 5762 5761 5759 5757 5755 5753 5751 5749 5746 5743 5740 5736 5732 5728 5723 5719 5714 5710 5705 5701 5697 5692
5742 5743 5744 5746 5747 5748 5750 5752 5753 5754 5755 5755 5755 5755 5756 5756 5756 5756 5755 5754 5753 5752 5750 5749 5747 5745 5743 5741 5738 5735 5733 5730 5726 5722 5718 5714 5710 5705 5701 5696 5691 5687 5682 5678
5735 5736 5737 5739 5739 5740 5741 5743 5744 5745 5746 5746 5746 5746 5746 5746 5746 5745 5744 5743 5742 5740 5738 5737 5735 5733 5731 5728 5725 5722 5719 5716 5712 5708 5704 5700 5695 5691 5686 5682 5677 5673 5668 5664
5728 5729 5730 5731 5731 5732 5733 5734 5735 5735 5736 5736 5737 5737 5736 5736 5735 5735 5733 5732 5730 5729 5727 5725 5723 5720 5718 5715 5712 5709 5706 5702 5698 5694 5690 5686 5681 5677 5672 5668 5663 5659 5655 5651
5722 5723 5722 5722 5723 5723 5725 5724 5725 5726 5726 5727 5727 5726 5726 5726 5725 5725 5723 5722 5720 5718 5716 5714 5711 5709 5706 5703 5699 5696 5692 5688 5684 5680 5676 5672 5668 5664 5659 5655 5650 5646 5642 5638
5717 5717 5716 5716 5716 5716 5718 5717 5717 5717 5717 5718 5718 5718 5718 5717 5716 5715 5714 5713 5711 5709 5706 5704 5701 5698 5694 5691 5687 5684 5680 5676 5671 5667 5663 5659 5654 5650 5646 5642 5637 5633 5629 5625
5711 5711 5710 5710 5710 5711 5712 5711 5710 5710 5709 5710 5709 5710 5709 5708 5708 5707 5705 5704 5702 5699 5697 5694 5690 5687 5683 5679 5676 5672 5668 5663 5659 5655 5650 5646 5642 5638 5633 5629 5625 5621 5617 5614
5707 5707 5707 5705 5705 5705 5705 5704 5704 5704 5703 5703 5703 5702 5701 5701 5700 5698 5697 5695 5693 5690 5687 5684 5680 5677 5673 5669 5665 5660 5656 5652 5647 5643 5639 5634 5630 5626 5622 5618 5614 5610 5606 5603
5705 5704 5702 5700 5700 5700 5700 5699 5699 5699 5698 5697 5697 5696 5695 5694 5692 5691 5689 5687 5684 5681 5678 5675 5671 5667 5663 5659 5654 5650 5646 5641 5637 5632 5628 5624 5619 5615 5611 5607 5603 5599 5596 5593
5701 5699 5698 5697 5697 5696 5696 5695 5694 5694 5693 5692 5691 5690 5689 5687 5685 5683 5681 5679 5676 5673 5670 5666 5662 5658 5654 5650 5645 5641 5637 5632 5627 5623 5618 5614 5609 5605 5601 5597 5593 5590 5587 5584
5698 5696 5695 5694 5693 5693 5692 5691 5690 5689 5688 5687 5685 5684 5682 5681 5679 5677 5674 5672 5669 5666 5662 5659 5655 5651 5647 5642 5637 5633 5628 5623 5619 5614 5609 5605 5601 5597 5593 5589 5586 5583 5580 5577
5695 5693 5692 5691 5689 5688 5687 5686 5685 5684 5683 5682 5680 5678 5677 5675 5673 5671 5669 5666 5663 5660 5657 5653 5649 5644 5640 5635 5630 5625 5620 5616 5611 5607 5602 5598 5594 5590 5585 5583 5580 5577 5575 5573
5691 5690 5688 5687 5686 5685 5684 5682 5681 5680 5679 5677 5675 5674 5673 5671 5669 5667 5664 5662 5658 5655 5651 5647 5643 5638 5633 5628 5624 5619 5614 5610 5605 5601 5597 5593 5588 5585 5581 5579 5576 5574 5572 5570
5688 5686 5685 5684 5683 5681 5680 5679 5678 5677 5675 5674 5672 5671 5670 5668 5666 5664 5661 5658 5655 5651 5647 5642 5638 5633 5628 5624 5619 5614 5609 5605 5601 5597 5593 5589 5585 5582 5579 5576 5574 5572 5571 5569
5685 5683 5682 5681 5680 5678 5678 5677 5676 5674 5673 5672 5671 5669 5668 5666 5664 5662 5659 5655 5651 5647 5643 5639 5634 5630 5625 5620 5615 5610 5606 5602 5598 5594 5591 5587 5584 5581 5579 5576 5575 5573 5572 5571
5682 5680 5679 5678 5677 5676 5676 5675 5674 5673 5672 5671 5670 5668 5667 5665 5663 5660 5657 5653 5649 5645 5641 5636 5632 5627 5622 5617 5613 5608 5604 5600 5597 5593 5590 5587 5584 5582 5580 5578 5577 5576 5575 5574
5680 5678 5677 5676 5676 5675 5674 5674 5673 5672 5671 5671 5670 5668 5666 5664 5662 5659 5656 5652 5648 5644 5640 5635 5631 5626 5621 5616 5612 5607 5604 5600 5597 5594 5592 5589 5587 5585 5583 5581 5580 5580 5579 5579
5678 5677 5676 5675 5675 5674 5674 5673 5673 5672 5672 5671 5670 5668 5667 5665 5662 5659 5656 5652 5649 5645 5640 5636 5631 5626 5622 5617 5613 5608 5605 5602 5599 5596 5594 5592 5590 5589 5587 5586 5585 5584 5584 5584
5676 5675 5675 5674 5674 5674 5674 5673 5673 5673 5672 5672 5671 5669 5667 5665 5662 5660 5657 5653 5650 5646 5642 5637 5633 5628 5623 5619 5614 5610 5607 5604 5602 5600 5598 5596 5594 5593 5592 5591 5590 5589 5589 5588
5674 5674 5673 5673 5674 5674 5674 5674 5674 5673 5673 5673 5672 5670 5668 5666 5664 5661 5658 5655 5652 5648 5644 5640 5635 5630 5625 5621 5617 5613 5610 5607 5605 5603 5601 5600 5599 5597 5596 5595 5594 5594 5593 5592
5672 5672 5672 5673 5673 5673 5674 5674 5674 5675 5674 5674 5673 5671 5670 5668 5666 5663 5660 5657 5654 5650 5646 5642 5638 5633 5628 5623 5619 5615 5612 5610 5608 5606 5605 5603 5602 5601 5600 5599 5598 5597 5596 5595
5670 5671 5671 5672 5672 5673 5674 5674 5675 5675 5675 5675 5674 5673 5672 5670 5668 5666 5663 5660 5657 5653 5649 5645 5641 5636 5631 5626 5622 5618 5615 5613 5611 5609 5607 5606 5605 5604 5604 5603 5602 5601 5600 5599
5669 5669 5670 5671 5672 5673 5674 5675 5676 5676 5676 5676 5676 5675 5674 5672 5671 5668 5666 5663 5660 5657 5653 5649 5644 5640 5635 5630 5626 5622 5618 5615 5613 5611 5610 5609 5608 5607 5606 5606 5605 5604 5603 5602
5667 5668 5669 5670 5671 5672 5674 5675 5676 5677 5677 5677 5677 5677 5676 5675 5673 5671 5669 5666 5663 5660 5657 5653 5648 5644 5640 5635 5630 5626 5622 5619 5617 5615 5613 5612 5611 5610 5610 5609 5608 5608 5607 5606
5665 5666 5667 5669 5670 5672 5673 5674 5676 5677 5678 5678 5678 5678 5678 5677 5676 5674 5672 5670 5667 5664 5661 5657 5654 5649 5645 5640 5636 5631 5628 5624 5621 5620 5618 5616 5615 5614 5613 5613 5612 5612 5611 5611
5662 5664 5666 5667 5669 5671 5672 5674 5675 5677 5678 5679 5679 5680 5679 5679 5678 5677 5675 5674 5671 5669 5666 5662 5659 5655 5651 5646 5642 5638 5634 5631 5628 5626 5624 5622 5620 5619 5618 5618 5617 5617 5616 5615
5659 5661 5663 5665 5667 5669 5671 5673 5674 5676 5678 5679 5680 5680 5681 5680 5680 5679 5678 5677 5675 5673 5670 5667 5664 5661 5657 5653 5649 5645 5642 5639 5636 5633 5631 5629 5627 5626 5625 5624 5623 5622 5622 5621